TimePST,TemperatureF,Dew PointF,Humidity,Sea Level PressureIn,VisibilityMPH,Wind Direction,Wind SpeedMPH,Gust SpeedMPH,PrecipitationIn,Events,Conditions,WindDirDegrees,DateUTC
12:19 AM,39.2,37.4,93,30.34,10.0,East,5.8,-,N/A,,Partly Cloudy,100,2013-02-13 08:19:00
12:54 AM,41.0,37.9,89,30.38,10.0,East,5.8,-,N/A,,Clear,90,2013-02-13 08:54:00
1:54 AM,41.0,39.0,93,30.38,10.0,East,6.9,-,N/A,,Clear,90,2013-02-13 09:54:00
2:54 AM,39.9,37.9,93,30.37,10.0,East,4.6,-,N/A,,Clear,100,2013-02-13 10:54:00
3:54 AM,39.9,37.0,89,30.36,10.0,ENE,3.5,-,N/A,,Clear,60,2013-02-13 11:54:00
4:54 AM,41.0,36.0,82,30.36,10.0,East,4.6,-,N/A,,Clear,90,2013-02-13 12:54:00
5:54 AM,39.0,36.0,89,30.35,10.0,ESE,3.5,-,N/A,,Clear,110,2013-02-13 13:54:00
6:54 AM,41.0,36.0,82,30.35,10.0,ESE,3.5,-,N/A,,Clear,110,2013-02-13 14:54:00
7:54 AM,42.1,37.0,82,30.36,10.0,Calm,Calm,-,N/A,,Clear,0,2013-02-13 15:54:00
8:54 AM,48.9,39.9,71,30.37,10.0,Calm,Calm,-,N/A,,Clear,0,2013-02-13 16:54:00
9:54 AM,52.0,42.1,69,30.38,10.0,Calm,Calm,-,N/A,,Clear,0,2013-02-13 17:54:00
10:54 AM,51.1,44.1,77,30.38,10.0,WSW,5.8,-,N/A,,Clear,240,2013-02-13 18:54:00
11:54 AM,52.0,43.0,71,30.36,10.0,WNW,4.6,-,N/A,,Clear,300,2013-02-13 19:54:00
12:54 PM,52.0,44.1,74,30.34,9.0,West,5.8,-,N/A,,Clear,280,2013-02-13 20:54:00
1:15 PM,51.8,44.6,76,30.29,10.0,Variable,5.8,-,N/A,,Partly Cloudy,0,2013-02-13 21:15:00
1:54 PM,53.1,45.0,74,30.32,10.0,WNW,6.9,-,N/A,,Partly Cloudy,290,2013-02-13 21:54:00
2:54 PM,52.0,46.0,80,30.30,10.0,WNW,8.1,-,N/A,,Scattered Clouds,290,2013-02-13 22:54:00
3:23 PM,51.8,46.4,82,30.26,10.0,WNW,4.6,-,N/A,,Partly Cloudy,300,2013-02-13 23:23:00
3:54 PM,53.1,46.9,80,30.29,10.0,WNW,4.6,-,N/A,,Clear,300,2013-02-13 23:54:00
4:12 PM,51.8,46.4,82,30.25,10.0,WNW,6.9,-,N/A,,Partly Cloudy,290,2013-02-14 00:12:00
4:44 PM,51.8,46.4,82,30.25,8.0,WNW,5.8,-,N/A,,Mostly Cloudy,300,2013-02-14 00:44:00
4:54 PM,51.1,46.9,86,30.29,8.0,WNW,5.8,-,N/A,,Mostly Cloudy,300,2013-02-14 00:54:00
5:54 PM,50.0,46.0,86,30.29,9.0,West,3.5,-,N/A,,Overcast,280,2013-02-14 01:54:00
6:54 PM,48.0,46.0,93,30.28,10.0,Calm,Calm,-,N/A,,Mostly Cloudy,0,2013-02-14 02:54:00
7:36 PM,48.2,44.6,87,30.24,9.0,Calm,Calm,-,N/A,,Scattered Clouds,0,2013-02-14 03:36:00
7:54 PM,46.9,44.1,90,30.28,10.0,SSE,3.5,-,N/A,,Clear,150,2013-02-14 03:54:00
8:54 PM,46.0,43.0,89,30.28,9.0,Calm,Calm,-,N/A,,Clear,0,2013-02-14 04:54:00
9:54 PM,44.1,41.0,89,30.28,10.0,ESE,4.6,-,N/A,,Clear,110,2013-02-14 05:54:00
10:54 PM,43.0,39.9,89,30.29,10.0,East,3.5,-,N/A,,Clear,100,2013-02-14 06:54:00
11:22 PM,42.8,39.2,87,30.24,10.0,East,4.6,-,N/A,,Scattered Clouds,80,2013-02-14 07:22:00
11:32 PM,42.8,39.2,87,30.24,10.0,East,4.6,-,N/A,,Mostly Cloudy,90,2013-02-14 07:32:00
11:54 PM,44.1,39.9,85,30.28,10.0,Calm,Calm,-,N/A,,Overcast,0,2013-02-14 07:54:00